Location: Biltmore Gardens
(41.6070°N, 83.4666°W)
Time: 14:22:15
(UTC+00:00)

SL-16 R/B - Pass Details

Date: 14 July 2020
Orbit: 839 x 850 km, 71.0° (Epoch: 04 August)

Event Time Altitude Azimuth Distance (km) Brightness Sun altitude
Exits shadow 02:09:58 13° 144° (SE) 2,284 3.8 -10.3°
Maximum altitude 02:13:29 22° 100° (E) 1,785 3.4 -10.8°
Drops below altitude 10° 02:17:40 10° 53° (NE) 2,476 4.5 -11.4°
Sets 02:20:39 0° 38° (NE) 3,418 5.4 -11.8°
